Current weather by "City, St" or "zip code"  
 

Current Conditions: HEBRON MUNI

Partly Cloudy


60.8 F

Last Updated on May 26 2024, 03:15 AM CDT
Humidity: 87%
Wind Speed: 12.8 mph
Barometer 29.54 in
Dewpoint: 57.0 F
Visibility: 10.00 mi
Precip: --
Heat Index: NA
Wind Chill: NA
Current conditions at:

HEBRON MUNI (KHJH)

Lat: 40.15 Lon: 97.59

active severe weather and emergency alerts image image weather storm and storm spotter reports image weather observation monitoring service image
Active
Alerts
Storm Reports Obs
Monitoring

Sign-up For Email & Text Message Weather Alert Notification Services



Advertise Here

Observation History for HEBRON MUNI


Time Wind
(mph)
Vis
(mi)
Weather Precip (in) Temperature (F) Relative
Humidity
Wind
Chill
(F)
Heat
Index
(F)
Pressure
Air Dwpt altimeter
(in)
sea level
(mb)
Rmks
03:15 AM CDT 12.8 10.00 Partly Cloudy -- 60.8 57.0 87% NA NA 29.54 1000.3
02:55 AM CDT 15.0 10.00 Partly Cloudy 00.02 60.8 57.4 88% NA NA 29.53 1000.0
01:55 AM CDT S 9.2 10.00 Thunderstorms and Rain 00.02 60.1 57.2 90% NA NA 29.62 1003.1
01:35 AM CDT 10.00 Rain 00.02 60.6 56.8 87% NA NA 29.59 1002.0
12:55 AM CDT E 9.2 10.00 Light Rain 00.11 61.3 58.6 91% NA NA 29.56 1001.0
12:35 AM CDT SE 3.4 5.00 Rain 00.08 62.2 58.5 87% NA NA 29.59 1002.0
11:55 PM CDT 6.9 10.00 Rain 00.04 61.9 57.0 84% NA NA 29.57 1001.4
11:35 PM CDT 10.3 10.00 Rain 00.02 61.5 56.5 84% NA NA 29.57 1001.4
11:15 PM CDT 9.2 10.00 Cloudy -- 61.5 56.5 84% NA NA 29.56 1001.0
10:55 PM CDT 3.4 10.00 Light Rain -- 62.1 55.4 79% NA NA 29.58 1001.7
10:35 PM CDT 10.00 Light Rain -- 62.1 55.6 79% NA NA 29.58 1001.7
09:55 PM CDT 12.8 10.00 Cloudy -- 70.3 56.8 62% NA 70.0 29.58 1001.7
09:35 PM CDT 10.00 Thunderstorms and Rain -- 70.7 53.1 54% NA 70.0 29.54 1000.3
09:15 PM CDT 11.4 7.00 Thunderstorms and Rain -- 73.0 54.0 51% NA 72.5 29.58 1001.7
08:55 PM CDT 10.00 Thunderstorms and Rain -- 78.3 % NA NA 29.56 1001.0
08:35 PM CDT SE 18.3 10.00 Thunderstorms -- 77.7 58.5 52% NA 77.5 29.48 998.3
08:15 PM CDT 11.4 10.00 Clear -- 77.0 59.9 56% NA 77.0 29.52 999.7
07:55 PM CDT 9.2 10.00 Clear -- 76.8 58.8 54% NA 76.8 29.56 1001.0
06:55 PM CDT 13.9 10.00 Clear -- 80.4 53.4 39% NA 80.2 29.57 1001.4
06:15 PM CDT 10.00 Clear -- NULL % NA NA M
05:55 PM CDT S 13.9 10.00 Clear -- 80.2 45.9 30% NA 79.3 29.61 1002.7
05:35 PM CDT 13.9 10.00 Clear -- 80.4 45.0 29% NA 79.5 29.62 1003.1
04:55 PM CDT S 16.1 10.00 Clear -- 79.7 43.0 27% NA 78.6 29.63 1003.4
04:35 PM CDT 18.3 10.00 Clear -- 79.9 43.9 28% NA 78.8 29.63 1003.4

Regional Weather Observation


YORK (KJYR)

Clear
59.0 F

AURORA (KAUH)

Clear
59.2 F

HASTINGS (KHSI)

Clear
57.9 F

GRAND ISLAND (KGRI)

Clear
59.0 F

CONCORDIA (KCNK)

Cloudy
62.1 F

BEATRICE MUNICIP (KBIE)

Mostly Cloudy
61.3 F

Advertise Here


Advertise Here